Location: ????? ???????
(25.7275°N, 32.5929°E)
Time: 11:31:00
(UTC+00:00)

Nadezhda 3 Rocket - Pass Details

Date: 02 March 2021
Orbit: 957 x 999 km, 82.9° (Epoch: 15 April)

Event Time Altitude Azimuth Distance (km) Brightness Sun altitude
Rises 17:07:30 0° 354° (N) 3,718 7.1 -17.8°
Reaches altitude 10° 17:10:02 10° 353° (N) 2,768 6.5 -18.4°
Maximum altitude 17:16:24 84° 266° (W) 1,008 4.1 -19.8°
Drops below altitude 10° 17:22:44 10° 179° (S) 2,752 6.3 -21.2°
Sets 17:25:15 0° 178° (S) 3,694 7.0 -21.8°
